Location: 22
(39.7117°N, 89.5929°W)
Time: 16:48:13
(UTC-06:00)

Hubble Space Telescope - Pass Details

Date: 11 October 2023
Orbit: 519 x 522 km, 28.5° (Epoch: 04 December)

Event Time Altitude Azimuth Distance (km) Brightness Sun altitude
Rises 19:36:39 0° 242° (WSW) 2,636 5.4 -14.5°
Reaches altitude 10° 19:39:32 10° 221° (SW) 1,747 3.9 -15.1°
Maximum altitude 19:42:07 17° 181° (S) 1,384 2.8 -15.6°
Enters shadow 19:43:50 13° 152° (SSE) 1,554 2.8 -15.9°
